Regional Weather Roundup
Issued by NWS

Home | Current Version | Previous Version | Graphics & Text | Print | Product List | Glossary On
Versions: 1 2 3 4 5 6 7 8 9 10 11 12 13 14 15 16 17 18 19 20 21 22 23 24 25 26 27 28 29 30 31 32 33 34 35 36 37 38 39 40 41 42 43 44 45 46 47 48 49 50
856
ASUS45 KTFX 240610
RWRMT
MONTANA REGIONAL WEATHER ROUNDUP
NATIONAL WEATHER SERVICE GREAT FALLS MT
1200 AM MDT TUE APR 24 2018

NOTE: "FAIR" INDICATES FEW OR NO CLOUDS BELOW 12000 FEET WITH NO
SIGNIFICANT WEATHER AND/OR OBSTRUCTIONS TO VISIBILITY.

MTZ001>007-043-240700-
WEST OF THE DIVIDE

CITY           SKY/WX    TMP DP  RH WIND       PRES   REMARKS
KALISPELL      FAIR      34  25  69 W3        30.41S
MISSOULA       FAIR      36  24  62 NW6       30.44R WCI  31
BUTTE          FAIR      30  26  85 VRB3      30.44S
MULLAN PASS    FAIR      35  21  56 SE9       30.40R WCI  28
ANACONDA         N/A     30  25  80 SW5       30.45S
DEER LODGE       N/A     28  23  80 W5        30.47S
HAMILTON         N/A     39  27  60 MISG      30.43R
RONAN            N/A     39  27  60 NE3       30.44R
$$

MTZ008-052>055-240700-
SOUTHWEST MONTANA

CITY           SKY/WX    TMP DP  RH WIND       PRES   REMARKS
BOZEMAN        FAIR      33  30  88 N5        30.47R
DILLON         CLOUDY    34  29  82 NE5       30.42R
ENNIS          CLOUDY    32  30  93 N9        30.45S WCI  24
W YELLOWSTONE  FAIR      28  21  74 NE10      30.37S WCI  19
THREE FORKS      N/A     34  32  92 CALM      30.40S
$$

MTZ009-010-012-014-046-048-049-054-240700-
EAST SLOPES AND CENTRAL MONTANA

CITY           SKY/WX    TMP DP  RH WIND       PRES   REMARKS
CUT BANK       FAIR      36  21  54 S7        30.41F WCI  30
GREAT FALLS    FAIR      37  20  50 SW5       30.45S
MALMSTROM AFB  FAIR      30  22  72 S7        30.46R WCI  23
HELENA         FAIR      37  29  72 CALM      30.46R
CHOTEAU          N/A     37  21  52 SW5       30.46S
ULM            FAIR      32  25  76 SE3       30.47R
WHITE SULPHUR    N/A     27  25  93 S6        30.45  WCI  20
$$

MTZ011-013-016-021-045-047-050-051-240700-
NORTH CENTRAL MONTANA

CITY           SKY/WX    TMP DP  RH WIND       PRES   REMARKS
HAVRE          FAIR      34  26  72 CALM      30.44R
LEWISTOWN      MOCLDY    32  31  96 CALM      30.46R
N BAR RANCH    FAIR      32  28  86 NW5       30.47S
$$

MTZ017>020-022>027-061-062-240700-
NORTHEAST MONTANA

CITY           SKY/WX    TMP DP  RH WIND       PRES   REMARKS
GLASGOW        FAIR      41  25  53 CALM      30.42R
GLENDIVE       FAIR      37  34  89 NW9       30.41S WCI  30
JORDAN           N/A     39  35  86 W6        30.43R
MALTA          CLEAR     39  28  65 CALM      30.42R
SIDNEY         FAIR      39  27  62 NW8       30.41R
WOLF POINT     FAIR      33  25  72 SW3       30.43R
PLENTYWOOD       N/A     36  27  69 CALM      30.41R
POPLAR           N/A     36  23  60 CALM      30.43R
$$

MTZ028>42-056>058-240700-
SOUTHCENTRAL AND SOUTHEAST MONTANA

CITY           SKY/WX    TMP DP  RH WIND       PRES   REMARKS
BAKER          LGT SNOW  32  32 100 NW6       30.41R FOG     WCI  26
BILLINGS       CLOUDY    36  35  96 SW8       30.48R WCI  30
LIVINGSTON     FAIR      32  30  92 CALM      30.46S
MILES CITY     CLOUDY    36  35  96 SW12      30.45R WCI  28
BIG TIMBER     CLEAR     32  30  93 W3        30.48F
FORSYTH          N/A     37  37 100 S9        30.47R WCI  31
$$

REGIONAL REPORTS...DAKOTAS

CITY           SKY/WX    TMP DP  RH WIND       PRES   REMARKS
WILLISTON      FAIR      34  24  67 N7        30.39R WCI  28
MINOT          FAIR      39  26  59 NW12      30.34R WCI  32
DICKINSON      FLURRIES  38  30  73 N16G28    30.35R WCI  29
BEACH          CLOUDY    37  37 100 W9        30.41R WCI  31
CROSBY         FAIR      28  27  93 SW3       30.40R
TIOGA          FAIR      34  23  64 N10       30.38S WCI  26
WATFORD CITY   FAIR      36  30  80 CALM      30.39R
BISMARCK       LGT RAIN  43  39  86 N21G29    30.28R
GRAND FORKS    MOCLDY    45  38  76 N10       30.24R
FARGO          CLOUDY    49  40  71 NW13      30.19S
BUFFALO SD       N/A     34  31  88 N22       30.26  WCI  22
RAPID CITY     CLOUDY    37  32  82 NW38G49   30.24R WCI  23
$$

REGIONAL REPORTS...WYOMING/IDAHO/WASHINGTON

CITY           SKY/WX    TMP DP  RH WIND       PRES   REMARKS
GILLETTE       CLOUDY    32  31  96 N21       30.39R WCI  20
SHERIDAN       FLURRIES  34  33  96 NW14      30.47R WCI  25
BUFFALO WY     CLOUDY    32  30  92 NW18G24   30.43R WCI  20
CODY           FLURRIES  33  29  85 NE6       30.46S WCI  28
YELLOWSTONE LA   N/A     19  17  92 NW3       30.39R
IDAHO FALLS    FAIR      37  31  78 N9        30.35R WCI  30
SALMON         FAIR      39  29  67 N6        30.40R
BOISE          MOCLDY    48  30  49 SE10      30.24R
SPOKANE        FAIR      53  24  32 CALM      30.36S
$$

REGIONAL REPORTS...ALBERTA

CITY           SKY/WX    TMP DP  RH WIND       PRES   REMARKS
CALGARY        PTCLDY    41  25  52 S6        30.32S
CARDSTON         N/A     39  21  48 S8          N/A
EDMONTON       CLEAR     46  23  39 SW8       30.26S
FORT MCMURRAY  MOCLDY    43  23  45 S9        30.15F
HIGH LEVEL     PTCLDY    37  27  65 SW2       29.98F
LETHBRIDGE     CLEAR     39  23  52 S17G24    30.36F WCI  30
LLOYDMINSTER   CLEAR     39  28  65 S12       30.30S WCI  32
MEDICINE HAT   CLEAR     36  28  75 SW5       30.38F
MILK RIVER       N/A     34  27  75 S3          N/A
ONEFOUR          N/A     39  25  56 NW3         N/A
PEACE RIVER    PTCLDY    39  27  60 SW8       30.14S
PINCHER CREEK  CLEAR     39  21  48 W13       30.37R WCI  32
WATERTON GATE    N/A     39  19  45 S13         N/A  WCI  32
$$

REGIONAL REPORTS...SASKATCHEWAN

CITY           SKY/WX    TMP DP  RH WIND       PRES   REMARKS
CORONACH         N/A     30  21  69 W2          N/A
CYPRESS HILLS    N/A     36  14  41 W2          N/A
ESTEVAN        PTCLDY    30  21  69 N5        30.38R
MOOSE JAW        N/A     32  23  69 W7          N/A  WCI  26
PRINCE ALBERT  CLEAR     30  25  80 NE2       30.36R
REGINA         CLEAR     30  23  74 SW7       30.39R WCI  23
ROCKGLEN         N/A     36  19  51 NW1         N/A
SASKATOON      CLEAR     34  27  75 SW12      30.36S WCI  25
SWIFT CURRENT  CLEAR     34  23  64 S9        30.39R WCI  26
VAL MARIE        N/A     28  25  86 CALM        N/A
$$




USA.gov is the U.S. government's official web portal to all federal, state and local government web resources and services.